349  
ASUS41 KAKQ 280011  
RWRAKQ  
 
REGIONAL WEATHER ROUNDUP  
NATIONAL WEATHER SERVICE WAKEFIELD VA  
800 PM EDT TUE SEP 27 2022  
 
NOTE: "FAIR" INDICATES FEW OR NO CLOUDS BELOW 12,000 FEET WITH NO  
SIGNIFICANT WEATHER AND/OR S TO VISIBILITY
. * = DENOTES  
STATION MAY NOT REPORT PRECIPITATION (E.G., RAIN,SNOW,ETC.),
 
THUNDER OR FOG.  
 
VAZ042-051-052>054-056-280100-  
NORTHERN VIRGINIA  
 
CITY SKY/WX TMP DP RH WIND PRES REMARKS
 
WASH NATIONAL PTCLDY 65 40 39 NW8 30.00R  
DULLES MOCLDY 62 40 44 NW16 30.01R  
FORT BELVOIR PTCLDY 62 40 44 NW9 29.99R  
QUANTICO MOCLDY 64 43 46 NW13 30.01R  
FREDERICKSBRG* MOCLDY 65 43 45 N9G16 29.99R  
STAFFORD* MOCLDY 63 42 45 NW7 30.04R  
WARRENTON CLOUDY 60 41 49 NW6 30.01R  
CULPEPER* CLOUDY 62 43 49 CALM 30.03R  
MANASSAS* CLOUDY 61 43 51 NW10 30.02R  
LEESBURG* MOCLDY 59 45 58 NW15G26 30.03R  
WINCHESTER PTCLDY 54 41 62 W8 30.03R  
FRONT ROYAL* MOCLDY 55 41 58 CALM 30.04R  
LURAY* CLOUDY 59 37 44 N3 30.05R  

 
 
VAZ048-049-060>072-079>083-280100-  
CENTRAL AND SOUTH CENTRAL VIRGINIA  
 
CITY SKY/WX TMP DP RH WIND PRES REMARKS
 
RICHMOND PTCLDY 68 41 37 CALM 29.99R  
CHESTERFIELD* MOCLDY 58 46 64 CALM 30.01R  
PETERSBURG* CLEAR 57 44 62 CALM 30.00R  
HANOVER CLEAR 60 47 61 CALM 30.00R  
TAPPAHANNOCK* CLEAR 56 47 69 CALM 30.00R  
QUINTON* FAIR 61 45 54 CALM 29.99R  
CHARLOTTSVILLE PTCLDY 61 45 55 NW5 30.02R  
GORDONSVILLE* NOT AVBL  
ORANGE* CLOUDY 59 45 58 N3 30.03R  
LOUISA* PTCLDY 53 52 95 N6 30.01R  
BUMPASS* NOT AVBL  
FARMVILLE* CLEAR 61 41 47 CALM 30.01R  
CREWE* FAIR 55 43 64 CALM 30.01R  
FORT PICKETT* FAIR 60 44 56 CALM 30.01R  
CHASE CITY* FAIR 58 49 71 CALM 30.02R  
CLARKSVILLE* MOCLDY 59 50 72 CALM 30.02R  
SOUTH HILL* PTCLDY 62 47 57 CALM 30.07R  
LAWRENCEVILLE* FAIR 61 48 62 CALM 30.01R  
EMPORIA* PTCLDY 58 45 61 CALM 30.02R  

 
 
VAZ088>098-280100-  
SOUTHEAST VIRGINIA  
 
CITY SKY/WX TMP DP RH WIND PRES REMARKS
 
NORFOLK PTCLDY 68 55 63 CALM 29.98R  
VIRGINIA BEACH PTCLDY 68 55 63 CALM 29.97R  
NORFOLK NAVAL PTCLDY 68 54 60 SE5 30.00R  
WEST POINT* NOT AVBL  
SALUDA* FAIR 62 50 66 CALM 29.99R  
NEWPORT NEWS CLEAR 60 44 55 CALM 29.99R  
LANGLEY AFB CLEAR 63 54 72 CALM 29.97R  
FORT EUSTIS CLEAR 68 46 44 NW7 29.96R  
WILLIAMSBURG* NOT AVBL  
HR EXEC AP* FAIR 54 50 86 CALM 29.99R  
FRANKLIN* PTCLDY 59 45 60 CALM 30.00R  
US460-WAKEFLD CLEAR 63 43 48 CALM 29.99R  

 
 
VAZ020-022-025-037-045-280100-  
WEST CENTRAL AND SOUTHWEST VIRGINIA  
 
CITY SKY/WX TMP DP RH WIND PRES REMARKS
 
STAUNTON* MOCLDY 58 36 43 W10 30.07R  
WAYNESBORO* FAIR 55 38 53 MISG 30.06R  
HOT SPRINGS VA MOCLDY 48 36 64 W9G18 30.09R  
LYNCHBURG CLEAR 62 39 42 CALM 30.05R  
DANVILLE CLEAR 62 42 47 N5 30.03R  
SOUTH BOSTON* MOCLDY 58 47 67 CALM 30.02R  
MARTINSVILLE CLEAR 59 37 44 N5 30.08R  
ROANOKE CLEAR 61 37 41 NW7 30.09R  
BLACKSBURG CLEAR 52 40 62 NW3 30.13R  
DUBLIN* CLEAR 53 39 59 NW6 30.10R  
MARION* CLEAR 50 35 55 NW5 30.14R  
HILLSVILLE* CLEAR 54 29 38 NW8 30.10R  
RICHLANDS* MOCLDY 51 37 58 CALM 30.13R  
WISE* PTCLDY 52 36 54 W3 30.14S  
ABINGDON* CLEAR 56 39 53 N5 30.12R  

 
 
MDZ021>025-VAZ099-100-280100-  
SOUTHERN MARYLAND AND THE DELMARVA PENINSULA  
 
CITY SKY/WX TMP DP RH WIND PRES REMARKS
 
PATUXENT RIVER PTCLDY 67 45 45 W7 29.97R  
BAY BRIDGE APT NOT AVBL  
LEONARDTOWN CLEAR 59 48 67 CALM 29.99R  
DOVER CLEAR 63 37 38 W3 29.96R  
GEORGETOWN CLEAR 60 47 61 CALM 29.97R  
EASTON CLEAR 61 46 59 CALM 30.01R  
CAMBRIDGE NOT AVBL  
SALISBURY MOCLDY 60 50 69 CALM 29.98R  
TANGIER FAIR 69 47 46 NW3 29.98R  
OCEAN CITY PTCLDY 55 48 77 W3 29.98R  
WALLOPS ISLAND CLEAR 62 45 53 CALM 29.98R  
ACCOMACK* NOT AVBL  

 
 
NCZ012>017-030>032-280100-  
NORTH CENTRAL AND EASTERN NORTH CAROLINA  
 
CITY SKY/WX TMP DP RH WIND PRES REMARKS
 
ROANOKE RAPIDS FAIR 59 54 82 CALM 30.01R  
RALEIGH MOCLDY 68 40 35 N3 30.02R  
ELIZABETH CITY MOCLDY 67 44 43 W8 29.98R  
AHOSKIE* PTCLDY 60 44 53 CALM 30.01R  
EDENTON* MOCLDY 71 51 48 NW3 29.99R  
CURRITUCK* MOCLDY 65 54 68 CALM 29.98R  
KILL DEVIL HLS MOCLDY 66 55 67 CALM 29.96R  
MANTEO MOCLDY 64 57 78 CALM 29.98R  
CAPE HATTERAS CLOUDY 66 59 78 NE3 29.98R  
TARBORO* FAIR 60 49 67 CALM 30.00R  
GOLDSBORO PTCLDY 65 50 58 CALM 29.97R  
WASHINGTON NOT AVBL  
GREENVILLE CLOUDY 63 54 72 CALM 29.99R  
NEW BERN CLOUDY 66 59 78 CALM 30.00R  
WILMINGTON CLOUDY 67 59 75 CALM 29.99R  

 
 
VAZ048-280100-  
ELSEWHERE  
 
CITY SKY/WX TMP DP RH WIND PRES REMARKS
 
HARRISBURG PA PTCLDY 59 44 57 W13 29.97R  
BALTIMORE PTCLDY 62 40 44 W7 29.98R  
ANNAPOLIS CLEAR 66 41 40 W9 29.98R  
ANDREWS AFB CLEAR 63 39 41 NW8 29.97R  
PHILADELPHIA PTCLDY 67 41 38 W9 29.96R  
HENDERSON NC PTCLDY 60 41 49 CALM 30.02R  
GREENSBORO PTCLDY 64 42 44 NW6 30.04R  
ROCKY MOUNT MOCLDY 68 39 34 NW3 30.01R  

 
 
VAZ100-280100-  
MARINE  
 
STATION/POSITION TIME TEMP WIND PRES WAVE SWELL
 
AIR SEA DIR/SP/G HT/PER HT/PER  
(UTC) (F) (DEG/KT/KT) (MB) (FT/S) (FT/S)  
CAPE MAY NJ 2330 68 73 300/ 12/ 16 1014.2R  
LEWES DE 2330 67 70 290/ 6/ 9 1014.7R  
15NM E FENWICK I 2350 70 71 290/ 12/ 16 1014.8R  
OCEAN-CITY-INLET 2330 68 73 300/ 4/ 5 1014.9R  
44089 WALLOPS IS 2356 72 N/A 2/ 9  
WACHAPREAGUE VA 2330 66 73 CALM / 1 1014.0R  
THOMAS POINT MD 0000 66 290/ 10/ 12 1016.3R  
GOOSES REEF MD 2348 65 72 300/ 12/ 16 1015.1F 1/ 6  
COVE POINT MD 2330 66 240/ 6/ 8 1015.1R  
SOLOMONS ISLAND 2330 67 74 310/ 4/ 6 1013.4R  
BISHOPS HEAD MD 2330 68 72 340/ 4/ 5 1014.7R  
PINEY POINT MD 2330 350/ 12/ 14 N/A  
POTOMAC MD 2348 66 73 340/ 8/ 10 N/A 1  
CAMBRIDGE MD 2330 68 71 290/ 4/ 6 1014.6R  
LEWISETTA VA 2330 69 72 330/ 6/ 7 1014.7R  
RAPPAHANNOCK LGT 2330 10/ 8/ 10 1015.1R  
STINGRAY PT 2348 68 20/ 8/ 10 N/A 1/17  
YORK RVR RNG VA 2330 72 320/ 7/ 8 1014.6R  
YORKTOWN VA 2330 70 74 260/ 4/ 5 1014.3R  
JAMESTOWN VA 2348 68 330/ 6/ 8 N/A 0  
DOMINION TERM VA 2330 72 40/ 2/ 5 1014.8R  
KIPTOPEKE VA 2330 78 180/ 7/ 9 N/A  
CHES BAY BRIDGE 2330 71 130/ 6/ 8 1013.9R  
CAPE HENRY VA 2330 69 120/ 1/ 3 1015.0R  
WILLOUBY STN VA 2330 71 80/ 5/ 8 1014.9R  
S CRANEY ISL VA 2330 71 80/ 8/ 10 1014.3R  
CAPE HENRY BUOY 2356 74 N/A 3/ 8  
1ST LANDING BUOY 2348 68 73 140/ 6/ 8 N/A 1/ 8  
64NM E OF VA BCH 2350 30/ 6/ 8 1013.9R 4/ 8 3/ 8  
DUCK PIER NC 2330 71 74 90/ 7/ 9 1014.4R  
44100 DUCK FRF 2356 74 N/A 3/ 7  
44056 DUCK FRF 2356 75 N/A 2/ 7  
OREGON INLET NC 2330 70 78 90/ 3/ 3 1014.4R  
HATTERAS NC 2330 72 76 50/ 3/ 4 1015.1R  
DIAMOND SHLS NC 2350 80 360/ 6/ 8 1014.5R  
CAPE LOOKOUT NC 2300 74 330/ 7/ 8 1014.6R  

 
 
 
CLICK HERE TO GO TO PREVIOUS BULLETINS.

The Nexlab VA Page
The Nexlab NC Page
The Nexlab MD Page Main Text Page